Tracking 27122 objects as of 24-Mar-2023
HD Live streaming from Space Station
objects crossing your sky now

STARLINK-5010

Track STARLINK-5010 now!
10-day predictions
STARLINK-5010 is classified as:


NORAD ID: 53930
Int'l Code: 2022-119AW
Perigee: 546.0 km
Apogee: 547.7 km
Inclination: 53.2 °
Period: 95.4 minutes
Semi major axis: 6917 km
RCS: Unknown
Launch date: September 24, 2022
Source: United States (US)
Launch site: AIR FORCE EASTERN TEST RANGE (AFETR)
Your satellite tracking list
Your tracking list is empty




NASA's NSSDC Master Catalog

Two Line Element Set (TLE):
1 53930U 22119AW  23082.82246645  .00000790  00000-0  67740-4 0  9991
2 53930  53.2170 120.5502 0001217  89.0597 271.0534 15.08841043 28640
Source of the keplerian elements: AFSPC